Flag for Bosnia-Herzegovina Weather past 2 weeks in Tuzla, Bosnia-Herzegovina

Now
81 °F

Passing clouds.


Feels Like: 79 °F
Forecast: 49 / 80 °F
Wind: 9 mph from Southeast

Location: Tuzla

Current Time: May 30, 2015 at 5:32:03 PM

Latest Report: May 30, 2015 at 5:00 PM


Visibility: N/A

Pressure: 29.92 "Hg

Humidity: 24%

Dew point: 41 °F

Location of TuzlaLocation

Historic Weather in Tuzla — Graph

°F

Tuzla temperature yesterday

Maximum temperature yesterday: 72 °F (at 4:00 PM)
Minimum temperature yesterday: 37 °F (at 6:00 AM)
Average temperature yesterday: 59 °F

Past Weeks' High & Low Weather Summary

 TemperatureHumidityPressure
High86 °F (May 19, 2:00 PM)100% (May 16, 6:00 AM)30.21 "Hg (May 16, 6:00 AM)
Low37 °F (May 29, 6:00 AM)20% (May 30, 3:00 PM)29.77 "Hg (May 19, 2:00 PM)
Average62 °F78%29.95 "Hg
* Reported May 15 4:00 PM — May 30 4:00 PM, Tuzla, Weather by CustomWeather, © 2015

Note: Actual official high and low records may vary slightly from our data, if they occured in-between our weather recording intervals... More about our weather records

Advertising

Tuzla weather history for previous 24 hours

 ConditionsComfort  
Time TempWeatherWind HumidityBarometerVisibility
4:00 PM
Sat, May 30
81 °FPassing clouds.6 mph23%29.92 "HgN/A
3:00 PM81 °FPassing clouds.3 mph20%29.95 "HgN/A
2:00 PM79 °FPassing clouds.5 mph23%29.95 "HgN/A
1:00 PM79 °FPassing clouds.3 mph24%29.98 "HgN/A
12:00 PM75 °FSunny.2 mph34%29.98 "Hg10 mi
11:30 AM73 °FSunny.2 mph41%29.98 "Hg10 mi
11:00 AM72 °FSunny.2 mph50%29.98 "Hg10 mi
10:30 AM68 °FSunny.2 mph49%29.98 "Hg10 mi
10:00 AM66 °FSunny.2 mph68%29.98 "Hg10 mi
9:30 AM63 °FSunny.2 mph73%29.98 "Hg10 mi
9:00 AM61 °FSunny.2 mph100%29.98 "Hg10 mi
8:00 AM54 °FSunny.1 mph100%29.98 "Hg10 mi
7:00 AM46 °FFog.1 mph100%29.98 "Hg3 mi
6:30 AM43 °FFog.1 mph100%29.98 "Hg1 mi
6:00 AM41 °FFog.1 mph100%29.98 "Hg1 mi
8:00 PM
Fri, May 29
63 °FSunny.6 mph68%29.98 "Hg10 mi
7:00 PM68 °FSunny.2 mph46%29.98 "Hg10 mi
6:00 PM70 °FPassing clouds.5 mph43%29.98 "HgN/A
5:00 PM70 °FPassing clouds.5 mph40%30.01 "HgN/A
Weather by CustomWeather, © 2015

See weather overviewHow to use our weather pages